CAPE
1185 1153 821 1514 367 223 174 159 122 328 602 699 553 315 426 573 456 461 300 284 409 474 1108 1474 2130 2617 2521 2649 2273 2327 1700 1284 1200 1089 944 882 965 991 983 772 495 799 1090 538 536 479 512 450 388
1093 1069 1092 383 150 200 149 177 295 470 609 546 485 406 368 523 469 347 559 376 414 579 1011 1205 2169 2595 2510 1961 1979 2211 1368 1197 936 745 646 747 869 823 518 825 1340 1310 876 568 330 441 269 251 453
980 1155 1151 385 98 99 177 220 464 452 426 353 504 486 336 575 281 357 536 420 467 732 1125 1447 2156 2335 2201 1768 2014 2128 1474 1062 848 760 684 671 682 959 1146 981 852 884 487 440 330 233 322 600 690
1206 863 424 116 103 20 188 411 469 462 362 359 478 547 591 488 321 586 558 542 613 861 1268 1682 2132 2082 2076 2012 1960 1550 1404 1186 865 677 529 591 688 941 891 599 736 357 466 243 170 389 520 614 895
770 660 113 78 81 116 248 456 431 468 453 437 395 493 672 710 702 667 657 648 721 1116 1553 1826 2125 2121 1875 1738 1456 1176 894 711 533 501 539 763 866 611 695 492 349 356 133 187 393 541 749 997 1322
723 455 126 103 57 172 374 483 483 507 483 416 528 488 632 583 722 655 600 697 853 1041 1246 1619 1794 2189 2005 1175 882 651 502 498 506 598 673 610 645 499 535 218 401 280 380 698 924 1158 1354 1568 1757
550 584 297 28 151 327 404 505 367 302 343 385 362 609 714 694 611 732 723 800 1086 969 1178 1717 2130 1801 1524 1920 930 743 669 869 783 738 750 545 357 336 397 391 658 649 875 1264 1541 1631 1931 2221 2378
760 638 386 30 77 320 546 536 348 437 549 569 512 541 720 814 656 711 724 818 1009 1238 1096 1138 1420 870 2148 2092 1382 1103 923 769 1018 938 592 557 783 1224 1137 1302 776 949 1395 1795 1765 1917 1946 2524 2938
147 248 51 45 104 435 572 444 433 681 588 761 856 584 693 785 692 725 769 928 1067 1033 1238 930 900 731 1641 2039 1179 1129 896 406 1202 1038 1155 896 768 509 754 1052 1553 1610 1475 1701 1780 1296 1506 1606 1469
131 159 150 126 116 460 582 380 641 642 830 972 817 862 963 689 733 740 677 787 890 866 1013 1253 1083 1078 717 1638 1418 685 1540 1362 1438 1339 1399 1128 707 898 952 648 1101 983 989 634 622 923 976 903 965
290 244 282 210 298 438 522 547 644 653 740 835 846 717 746 536 655 589 650 597 575 904 1005 964 839 904 1126 375 520 372 303 1377 1298 1046 969 749 1016 876 542 633 617 750 584 817 766 781 816 1026 1261
339 325 394 282 690 529 597 668 659 495 430 698 869 812 810 641 604 737 597 567 566 597 863 859 947 1069 582 503 10 0 74 554 805 782 983 1144 799 636 494 251 432 554 953 810 614 581 1082 1194 1595
416 381 266 136 464 702 711 667 473 479 983 966 886 901 945 937 995 856 571 498 559 655 769 1106 1094 1166 706 46 14 0 22 461 560 994 885 674 599 644 573 605 546 956 604 322 372 693 901 1023 1408
231 362 163 350 543 687 512 574 288 672 1105 1097 1047 1032 999 1035 971 857 640 558 607 634 682 1053 1124 1169 781 218 7 0 120 701 666 840 538 625 485 803 732 818 696 474 320 293 455 865 1051 1426 1508
269 89 67 98 420 496 352 412 319 632 1099 1170 1211 1120 1105 1127 1079 995 832 676 586 653 722 824 972 899 871 385 345 203 452 832 100 70 233 533 425 752 975 625 751 509 437 562 569 651 1179 1583 1703
283 160 56 39 84 50 179 139 244 845 986 1036 1193 1171 1192 1249 1256 1254 1128 931 669 621 665 755 619 732 734 506 407 496 442 471 191 5 153 501 412 526 903 619 543 504 442 440 370 1163 1375 1688 1421
264 196 188 122 60 50 16 89 0 793 752 761 1099 1182 1195 1326 1357 1371 1316 1244 930 687 678 674 765 785 706 540 223 122 365 419 60 30 180 240 483 312 750 707 671 580 396 518 415 1275 1627 1516 1057
346 300 127 58 55 26 62 68 2 729 683 571 831 1039 1024 1174 1255 1313 1362 1311 1189 994 869 808 740 786 899 517 253 51 0 59 33 7 108 166 218 458 605 739 865 693 508 550 609 1396 1746 1581 955
327 340 326 207 27 45 52 57 46 243 685 573 633 840 1040 827 1095 1177 1272 1295 1233 1043 948 957 904 807 811 624 373 162 49 0 5 37 0 7 22 119 611 557 856 752 691 890 644 716 1847 1752 1424
301 363 455 237 60 84 160 290 195 109 577 631 570 659 814 956 643 952 1216 1354 1346 1232 1052 1016 1006 909 722 626 550 283 72 1 5 0 0 12 30 50 79 570 531 778 675 906 681 1083 2109 1773 1476
275 307 303 220 319 263 375 467 464 258 166 332 633 533 597 699 847 784 1152 1342 1444 1403 1178 1046 998 877 740 589 498 156 18 3 2 2 0 0 5 18 69 93 166 182 494 520 604 758 1852 1960 1547
233 124 208 321 380 281 338 428 436 268 320 218 162 244 498 650 752 898 1043 1116 1259 1484 1315 1140 1033 895 751 617 445 321 72 64 51 46 16 0 3 0 48 76 59 22 0 132 403 337 1736 1862 1403
289 322 288 622 574 260 211 333 36 119 304 385 304 209 75 86 620 760 947 946 1149 1416 1352 1168 1063 1026 850 675 557 396 98 276 253 93 108 76 93 8 33 103 63 9 0 0 24 515 1904 1575 1410
247 253 118 105 85 124 7 150 57 99 146 30 182 289 213 110 228 626 931 955 1166 1365 1334 1171 1073 1167 980 825 789 595 279 245 488 414 247 108 106 185 76 68 115 16 7 16 3 899 1870 1688 1659
339 413 166 142 239 233 13 70 86 70 3 2 14 243 302 168 339 520 917 1172 1336 1442 1365 1267 1234 1158 1065 899 898 929 812 943 822 748 418 305 299 282 197 70 48 29 48 188 648 1345 1956 1912 1160
363 360 246 125 110 47 26 267 59 140 70 58 12 53 233 186 239 445 722 1111 1430 1497 1494 1422 1346 1273 989 751 969 1008 1130 1040 831 866 603 583 411 325 321 601 591 449 615 757 958 1680 1930 1511 595
227 369 174 147 17 157 131 221 78 126 119 50 34 28 289 207 272 393 595 1020 1388 1502 1575 1576 1433 1376 1060 786 715 860 1095 1099 876 928 884 664 675 481 603 662 795 458 774 973 1841 1647 1320 1004 78
209 126 267 192 241 194 299 245 328 293 141 21 210 110 155 359 256 364 644 805 1203 1410 1514 1531 1490 1490 1232 977 887 926 1057 1112 904 947 935 880 858 927 1082 1257 1252 803 983 1448 1668 853 66 49 0
208 247 134 206 294 204 97 136 277 284 150 42 8 233 134 186 302 316 600 766 1026 1245 1360 1465 1456 1467 1349 870 701 940 886 998 1026 1001 968 904 911 892 1488 1655 1690 1569 1728 1172 344 5 7 0 0
104 204 299 337 236 126 59 33 14 12 39 129 96 56 125 80 166 292 589 771 914 1116 1250 1348 1378 1352 1355 957 617 692 785 1036 1035 1096 1020 973 1031 982 1375 1392 924 1337 1306 218 7 1 0 0 0
CIN
-108 -110 -169 -97 -68 -22 -18 -15 -49 -28 -28 -31 -43 -52 -63 -58 -64 -30 -34 -6 -5 -0 -0 -0 -0 -0 -0 -0 -0 -0 -0 -0 -0 -5 -16 -17 -14 -15 -14 -13 -31 -8 -0 -14 -24 -31 -27 -27 -29
-146 -146 -150 -196 -37 -11 -7 -30 -30 -39 -39 -29 -34 -49 -65 -57 -65 -74 -16 -0 -7 -0 -0 -0 -0 -0 -0 -0 -0 -0 -0 -1 -2 -24 -22 -15 -23 -25 -31 -6 -0 -0 -0 -7 -24 -14 -50 -56 -33
-190 -153 -122 -107 -56 -12 -9 -28 -39 -45 -42 -39 -35 -45 -70 -51 -88 -71 -27 -13 -0 -0 -0 -0 -0 -0 -0 -0 -0 -0 -0 -0 -3 -18 -17 -10 -17 -11 -1 -2 -0 -1 -18 -11 -25 -45 -48 -29 -31
-156 -188 -190 -43 -25 -44 -33 -37 -54 -59 -48 -53 -43 -38 -34 -44 -48 -16 -24 -10 -0 -0 -0 -0 -0 -0 -0 -0 -0 -0 -0 -0 -2 -7 -14 -6 -0 -0 -0 -14 -0 -17 -20 -34 -43 -38 -44 -41 -35
-196 -174 -108 -41 -23 -35 -42 -41 -61 -52 -65 -55 -56 -34 -26 -12 -0 -4 -7 -5 -0 -0 -0 -0 -0 -0 -0 -0 -0 -0 -0 -1 -15 -10 -2 -0 -0 -0 -0 -1 -19 -20 -48 -44 -29 -28 -24 -25 -22
-139 -180 -43 -19 -34 -43 -38 -42 -43 -53 -76 -79 -33 -41 -22 -19 -1 -0 -1 -0 -0 -0 -2 -1 -0 -0 -0 -0 -1 -5 -15 -8 -10 -2 -0 -0 -0 -0 -0 -38 -29 -39 -36 -23 -17 -10 -13 -12 -11
-118 -54 -25 -64 -38 -19 -36 -50 -35 -66 -62 -61 -74 -39 -21 -7 -11 -0 -0 -0 -0 -0 -0 -4 -0 -0 -0 -0 -0 -2 -9 -0 -0 -0 -0 -3 -1 -0 -3 -33 -34 -35 -17 -8 -10 -8 -7 -5 -10
-175 -62 -24 -37 -14 -15 -37 -47 -68 -63 -68 -78 -74 -63 -34 -31 -25 -2 -0 -0 -0 -0 -0 -17 -7 -14 -0 -0 -0 -0 -0 -1 -0 -0 -1 -0 -0 -0 -0 -6 -33 -27 -13 -6 -5 -11 -16 -17 -17
-319 -34 -13 -27 -24 -25 -47 -56 -88 -105 -98 -82 -70 -85 -71 -57 -50 -20 -1 -0 -0 -0 -1 -0 -15 -30 -11 -1 -8 -2 -2 -8 -1 -0 -1 -2 -1 -17 -14 -18 -13 -23 -37 -37 -34 -54 -57 -60 -53
-170 -31 -28 -35 -26 -28 -47 -44 -73 -86 -89 -90 -96 -83 -53 -64 -42 -36 -36 -6 -0 -0 -0 -0 -2 -12 -26 -1 -8 -32 -1 -2 -0 -0 -0 -1 -17 -19 -30 -38 -50 -67 -77 -88 -93 -85 -76 -47 -11
-136 -41 -60 -41 -48 -37 -43 -58 -87 -60 -51 -74 -100 -112 -80 -81 -46 -56 -41 -26 -25 -0 -0 -3 -12 -23 -14 -30 -24 -28 -47 -5 -0 -1 -0 -9 -11 -20 -21 -24 -24 -32 -53 -19 -24 -17 -12 -15 -11
-58 -104 -100 -63 -63 -54 -47 -63 -66 -78 -67 -96 -105 -99 -103 -98 -80 -45 -37 -45 -36 -26 -4 -2 -2 -18 -31 -32 -153 -0 -85 -37 -2 -11 -7 -3 -11 -18 -34 -36 -37 -32 -17 -25 -27 -20 -17 -15 -12
-88 -89 -92 -78 -62 -52 -62 -57 -64 -79 -136 -140 -156 -108 -67 -48 -22 -27 -52 -44 -30 -28 -12 -0 -0 -5 -18 -100 -140 -0 -145 -15 -1 -5 -10 -17 -17 -29 -29 -26 -28 -26 -25 -30 -23 -23 -17 -18 -9
-113 -105 -84 -66 -61 -55 -39 -61 -78 -102 -160 -158 -150 -118 -89 -70 -53 -46 -68 -77 -58 -33 -24 -2 -0 -0 -9 -60 -148 -0 -65 -3 -10 -15 -15 -30 -34 -30 -17 -21 -24 -37 -45 -32 -30 -27 -20 -11 -2
-122 -57 -54 -81 -68 -54 -60 -60 -69 -116 -152 -135 -136 -121 -110 -85 -64 -68 -65 -68 -80 -48 -28 -6 -1 -0 -1 -16 -39 -57 -13 -1 -113 -123 -57 -28 -55 -32 -24 -20 -20 -29 -44 -36 -27 -20 -15 -1 -0
-62 -74 -34 -85 -69 -88 -53 -15 -49 -129 -131 -113 -130 -127 -116 -104 -97 -72 -59 -63 -84 -76 -59 -21 -21 -4 -0 -5 -15 -14 -22 -17 -36 -191 -69 -30 -43 -41 -20 -15 -19 -35 -38 -30 -24 -14 -3 -2 -9
-77 -52 -51 -60 -102 -96 -79 -32 -0 -123 -113 -96 -116 -129 -115 -102 -97 -85 -71 -55 -71 -83 -71 -49 -19 -5 -1 -5 -27 -43 -24 -20 -68 -166 -80 -46 -31 -42 -14 -11 -17 -28 -24 -26 -24 -4 -2 -1 -7
-33 -23 -51 -80 -103 -141 -67 -59 -123 -130 -127 -101 -102 -112 -177 -112 -108 -97 -95 -79 -69 -69 -69 -57 -47 -16 -0 -3 -14 -57 -11 -39 -88 -205 -104 -45 -50 -32 -15 -10 -15 -15 -16 -16 -24 -12 -0 -0 -3
-62 -53 -44 -64 -195 -165 -119 -109 -131 -140 -164 -140 -129 -109 -126 -229 -116 -94 -94 -87 -91 -89 -79 -63 -52 -43 -9 -6 -7 -19 -68 -0 -25 -70 -0 -190 -109 -52 -15 -10 -10 -12 -10 -17 -27 -21 -6 -0 -0
-70 -61 -40 -64 -218 -163 -131 -77 -94 -166 -185 -159 -143 -143 -122 -108 -217 -141 -106 -91 -115 -114 -106 -85 -64 -44 -41 -19 -0 -2 -32 -54 -41 -0 -0 -104 -85 -59 -37 -18 -16 -12 -7 -11 -20 -18 -7 -6 -1
-45 -64 -32 -37 -82 -128 -107 -71 -97 -171 -228 -234 -185 -148 -115 -96 -120 -174 -129 -119 -112 -117 -134 -109 -97 -78 -53 -36 -4 -39 -43 -49 -29 -4 -0 -52 -136 -101 -75 -62 -36 -32 -19 -10 -18 -22 -0 -0 -1
-43 -165 -106 -71 -53 -18 -129 -46 -64 -191 -232 -237 -228 -198 -147 -120 -95 -98 -129 -175 -172 -127 -122 -113 -102 -86 -67 -46 -15 -4 -91 -56 -68 -60 -13 -0 -150 -33 -117 -69 -78 -81 -0 -51 -21 -21 -0 -0 -2
-15 -86 -53 -72 -52 -86 -105 -29 -61 -318 -131 -144 -233 -223 -222 -190 -100 -93 -143 -211 -166 -132 -144 -143 -111 -93 -82 -63 -27 -15 -60 -10 -2 -30 -12 -21 -60 -152 -134 -83 -94 -121 -0 -0 -78 -17 -0 -0 -0
-94 -75 -113 -192 -168 -51 -257 -100 -53 -96 -109 -192 -227 -220 -217 -236 -178 -114 -108 -166 -153 -134 -124 -136 -129 -82 -76 -62 -23 -12 -21 -23 -0 -0 -0 -8 -31 -31 -100 -134 -105 -166 -118 -65 -43 -7 -0 -0 -0
-64 -24 -6 -10 -20 -39 -208 -196 -89 -112 -45 -107 -282 -215 -239 -300 -201 -133 -130 -124 -109 -141 -139 -125 -120 -108 -86 -81 -32 -0 -2 -1 -0 -0 -0 -1 -7 -24 -34 -113 -161 -160 -102 -65 -31 -1 -0 -0 -0
-43 -36 -10 -8 -18 -58 -293 -79 -56 -192 -215 -231 -319 -251 -254 -272 -224 -157 -145 -115 -124 -131 -135 -134 -117 -105 -121 -127 -61 -3 -0 -0 -0 -0 -0 -0 -8 -11 -16 -5 -11 -38 -27 -30 -16 -0 -1 -6 -7
-75 -23 -106 -17 -192 -65 -81 -83 -103 -117 -171 -204 -201 -246 -216 -248 -233 -199 -187 -130 -125 -137 -144 -144 -132 -101 -119 -135 -110 -29 -0 -0 -0 -0 -0 -3 -10 -10 -15 -16 -9 -44 -24 -19 -0 -0 -1 -2 -166
-38 -88 -26 -64 -9 -25 -57 -98 -32 -34 -47 -103 -131 -158 -204 -212 -241 -205 -190 -149 -137 -132 -122 -115 -104 -100 -110 -108 -92 -43 -0 -0 -0 -0 -0 -4 -6 -6 -8 -9 -10 -31 -25 -5 -0 -14 -139 -205 -0
-65 -30 -84 -68 -45 -14 -34 -25 -97 -90 -89 -140 -122 -112 -173 -237 -249 -245 -214 -174 -154 -154 -138 -120 -114 -84 -89 -128 -114 -48 -25 -0 -0 -0 -1 -2 -1 -4 -2 -4 -5 -5 -1 -11 -64 -239 -430 -0 -0
-33 -3 -19 -2 -22 -89 -80 -54 -66 -118 -130 -191 -154 -176 -236 -255 -270 -273 -261 -233 -211 -202 -180 -162 -133 -110 -105 -121 -113 -77 -32 -0 -0 -0 -0 -1 -1 -3 -0 -3 -22 -2 -1 -120 -234 -59 -0 -0 -0
Wind_Speed
4 3 1 3 1 4 5 5 1 6 5 1 1 2 9 7 4 6 10 9 15 14 13 14 15 16 16 16 17 16 16 16 15 15 14 13 11 9 6 6 5 6 7 8 7 8 8 8 7
3 3 2 0 3 6 5 3 8 6 9 11 9 6 5 5 6 12 10 14 16 14 12 14 14 15 16 16 16 16 16 15 14 13 12 11 10 7 5 4 4 6 7 7 9 9 7 6 6
3 2 2 3 3 5 6 7 11 10 8 2 5 7 3 4 10 12 11 16 14 14 12 13 15 16 16 16 15 14 14 14 12 11 11 9 7 6 5 4 5 6 6 7 8 6 5 5 5
1 1 2 5 9 4 6 10 7 10 8 6 10 9 6 6 11 6 16 16 14 14 12 13 16 17 17 15 15 14 14 12 10 9 8 6 4 4 4 4 6 5 6 7 7 6 6 5 6
1 1 3 5 6 4 6 8 8 2 4 5 3 7 7 3 9 17 15 14 15 13 10 12 15 16 15 15 14 13 11 11 10 8 6 4 3 2 3 5 5 6 6 7 7 8 8 9 9
1 0 4 6 5 5 7 7 5 5 5 9 11 9 4 6 13 15 13 13 12 13 11 9 14 15 15 15 14 12 12 10 8 6 4 2 2 3 3 4 4 5 5 6 7 8 9 10 11
2 3 3 4 6 3 4 5 4 8 9 6 9 7 5 10 13 13 12 12 12 12 12 9 10 13 15 14 13 12 10 9 6 5 3 2 3 4 3 3 4 4 6 7 8 9 10 10 11
1 1 3 2 5 4 7 5 7 6 5 10 6 6 8 14 16 14 13 13 12 11 12 9 7 3 8 9 13 11 9 6 6 3 3 3 4 5 5 6 3 6 7 8 9 11 10 10 10
1 2 3 2 4 5 10 5 5 4 10 4 2 8 10 19 17 15 13 12 10 9 11 12 9 4 5 8 7 10 9 6 4 2 5 2 3 3 4 5 7 7 8 9 10 11 10 9 7
1 3 2 2 3 6 12 11 7 5 9 4 5 10 19 18 16 17 16 14 14 12 12 10 11 9 5 5 6 4 3 4 3 4 3 1 2 3 6 5 7 7 9 6 7 7 5 4 6
0 3 2 4 1 11 13 7 4 5 7 7 10 18 18 16 15 15 16 15 15 14 9 10 9 9 10 5 4 3 2 1 1 2 3 3 3 3 3 2 3 4 5 5 5 6 6 9 7
1 3 3 3 5 11 11 6 4 6 4 2 16 19 19 19 17 15 15 15 15 13 13 12 10 8 8 6 4 3 3 1 2 1 2 3 3 3 3 3 3 3 4 5 6 5 7 8 7
1 3 5 6 10 9 8 3 1 2 5 12 18 18 16 14 14 12 12 13 13 14 13 12 11 11 9 9 7 4 5 3 3 2 2 3 3 2 2 3 4 4 4 5 5 6 7 7 7
4 6 3 8 11 9 8 2 2 3 10 13 17 18 16 17 16 13 13 14 14 14 13 13 12 10 11 9 10 8 7 6 3 2 1 3 2 2 2 3 4 4 4 4 5 6 6 5 5
4 5 7 7 11 7 8 5 10 8 12 13 15 16 15 16 16 16 14 14 14 13 13 13 13 13 12 12 11 9 6 5 2 2 2 1 1 2 2 3 3 4 4 5 4 6 5 6 5
1 2 3 3 10 4 11 6 12 12 15 14 15 14 14 16 18 16 13 13 13 13 14 13 11 13 13 11 9 8 6 5 5 3 2 3 2 2 2 2 3 3 4 4 5 6 5 6 6
4 2 1 1 3 6 10 6 6 14 16 15 15 15 15 14 16 15 15 14 14 14 14 14 13 13 13 10 7 7 8 5 5 3 3 3 2 3 1 2 3 3 3 4 5 6 5 6 5
2 2 0 3 1 5 8 15 5 14 17 18 16 16 14 16 18 15 16 14 13 14 14 14 13 13 13 8 6 5 5 4 3 3 3 4 2 2 2 2 2 3 3 4 6 6 5 5 5
2 5 8 7 4 4 8 11 12 11 17 18 17 18 17 15 13 15 15 15 14 14 14 15 14 14 12 9 9 7 8 6 5 6 4 4 3 3 1 1 0 2 4 5 6 5 4 3 2
4 8 11 8 1 5 5 12 13 12 20 23 21 20 20 17 12 13 16 17 16 16 16 16 16 14 13 10 10 7 7 6 6 5 5 7 6 5 4 3 2 2 3 4 5 6 3 2 3
8 10 9 7 1 1 7 9 8 12 17 15 21 21 20 20 19 16 19 19 17 17 18 17 16 16 13 12 9 5 4 2 6 7 7 7 7 4 5 5 3 1 2 3 4 5 6 3 2
7 4 8 5 4 4 2 7 11 5 15 18 21 21 22 21 19 17 18 18 19 18 16 16 15 15 13 14 12 13 9 10 8 8 7 6 5 5 6 7 5 4 3 2 3 3 4 3 2
2 2 2 3 2 4 1 5 5 4 9 15 18 22 20 20 19 20 20 18 15 16 16 15 15 15 15 15 13 10 8 8 5 7 9 8 6 6 5 7 7 5 5 3 4 5 3 1 2
9 2 4 3 1 5 1 3 8 5 5 5 6 15 20 18 19 19 17 14 14 14 14 15 16 15 15 15 15 15 13 10 8 7 7 7 6 6 7 8 7 6 6 5 5 5 3 2 2
4 1 2 2 2 3 1 5 12 12 13 11 10 9 11 15 16 16 17 18 17 17 17 15 16 16 15 16 15 15 15 13 12 9 7 7 6 6 6 6 7 7 7 6 5 5 4 4 3
3 2 3 3 3 7 2 7 5 5 8 7 8 9 6 12 15 16 16 16 16 17 18 17 17 16 16 16 16 14 14 10 9 10 7 6 6 5 4 5 6 7 7 6 5 4 2 3 3
6 7 1 6 2 5 4 6 15 6 8 8 9 7 7 11 13 15 15 16 16 17 19 19 18 16 16 16 13 13 13 12 10 10 9 6 6 5 6 7 7 6 6 6 5 3 3 3 3
7 10 4 3 4 5 4 6 9 10 11 7 7 11 9 10 13 14 15 16 15 16 15 16 16 16 16 15 13 12 13 13 11 10 10 9 7 6 6 7 6 5 6 6 5 4 5 4 3
6 5 2 2 4 4 6 7 5 9 9 10 9 11 11 13 13 14 15 15 15 15 15 15 15 16 14 13 12 13 12 13 12 11 10 10 8 6 5 5 4 5 6 6 6 5 5 4 4
11 13 13 8 7 2 4 12 6 14 10 8 10 10 9 13 13 14 15 16 16 16 16 17 16 15 14 13 12 13 12 12 13 12 11 10 10 8 7 6 4 5 6 7 8 7 5 5 4
Wind_Direction
210 175 223 201 69 76 66 81 90 129 167 109 114 155 105 42 25 88 138 134 137 140 140 134 132 128 127 129 132 131 131 133 130 131 132 130 124 117 104 83 57 48 39 41 38 29 22 24 30
188 201 233 150 84 96 71 48 86 98 112 115 94 108 68 79 73 119 128 145 145 140 142 142 134 130 129 130 130 130 132 132 133 135 131 128 129 123 103 77 58 36 33 22 13 21 16 20 26
207 282 325 52 71 86 108 120 116 122 149 181 117 59 63 70 112 133 131 143 147 143 148 145 139 134 135 135 133 135 137 137 138 136 131 131 132 126 101 68 41 35 16 8 359 7 2 3 356
264 220 120 79 82 80 125 154 133 131 116 84 112 79 87 86 134 131 142 145 148 146 149 146 142 141 141 141 138 140 141 139 141 136 133 133 134 117 80 58 44 17 1 0 348 342 331 328 311
333 233 69 82 77 80 129 147 150 139 101 94 127 107 87 61 117 138 144 148 146 150 145 148 145 142 138 134 135 137 138 137 140 140 137 126 91 50 59 46 30 7 360 357 342 328 324 322 317
92 275 82 78 77 97 141 158 139 86 93 114 104 106 74 116 139 144 146 149 145 147 144 140 143 137 135 139 141 143 144 141 146 140 124 95 50 7 28 34 21 10 357 351 336 326 319 312 314
68 59 79 98 112 130 147 159 137 117 131 106 133 104 113 149 148 146 147 147 146 149 150 145 143 149 150 145 147 147 146 144 143 137 110 45 27 0 349 5 7 357 350 340 326 327 324 317 303
68 60 110 104 162 113 153 154 139 135 99 120 137 159 164 163 155 150 151 151 153 156 156 137 131 143 149 143 145 143 142 144 148 122 92 32 25 15 351 330 11 349 341 329 326 323 321 310 317
355 106 105 134 186 141 164 145 135 91 143 108 14 152 146 150 154 152 154 155 153 157 153 152 150 153 148 143 154 146 146 159 137 114 49 61 1 360 339 345 325 338 339 335 336 336 333 328 308
354 107 66 300 218 174 174 162 157 160 156 103 89 110 133 150 161 163 166 165 167 161 154 154 159 163 130 139 116 60 138 103 67 30 357 16 343 324 318 317 317 329 334 351 353 353 343 333 355
64 77 316 356 155 170 165 161 143 169 211 183 171 149 150 161 170 172 178 174 171 166 157 170 158 165 139 137 113 76 23 64 123 40 336 316 317 321 335 4 2 358 15 27 29 18 15 360 4
134 296 297 320 150 150 168 145 173 193 343 174 150 158 156 168 176 180 184 180 176 176 172 173 164 140 133 116 107 59 306 45 225 118 287 304 308 333 358 22 38 15 27 33 24 10 360 356 12
278 349 307 259 174 147 145 178 236 171 70 129 145 157 166 174 183 185 188 185 182 181 179 178 167 150 142 130 129 143 257 246 215 194 217 300 309 6 35 62 65 44 48 21 19 4 360 359 15
332 317 312 114 156 154 160 166 200 137 138 145 158 166 175 184 184 183 189 188 192 188 181 182 179 168 153 154 158 173 215 222 220 214 227 302 316 336 59 80 72 69 45 18 13 1 351 0 8
294 111 114 127 169 165 146 176 221 160 166 165 178 178 183 189 188 195 192 195 193 192 183 187 182 174 172 167 172 179 188 192 174 204 254 40 355 49 50 73 69 60 44 18 11 1 5 16 38
29 68 168 131 172 178 193 248 207 171 174 185 190 194 193 195 199 200 195 198 193 191 189 186 187 188 183 175 173 170 187 176 169 185 198 83 70 48 72 78 66 40 36 21 12 9 19 33 45
31 118 303 217 130 153 210 265 208 187 190 196 198 204 202 200 206 204 199 196 189 192 189 190 191 193 191 184 182 177 171 181 186 186 149 118 72 106 103 84 68 10 28 19 13 17 28 44 63
49 32 320 279 142 203 219 257 231 200 207 206 203 207 209 206 210 205 201 193 190 190 190 191 190 193 193 187 195 195 190 190 194 206 179 183 156 97 196 124 48 0 8 11 12 5 53 57 67
297 311 295 290 269 263 251 266 275 217 215 217 213 211 212 215 205 200 202 192 185 187 187 191 190 193 187 188 198 211 209 199 208 213 200 204 201 209 222 220 329 6 4 5 6 353 37 87 90
283 293 291 293 230 232 247 255 250 228 224 218 215 214 215 213 195 199 196 196 192 188 188 188 191 190 194 197 201 214 201 213 212 209 213 213 206 216 232 249 260 24 338 358 9 5 341 98 58
271 259 270 277 117 216 296 274 234 248 243 228 226 226 222 215 203 191 197 196 195 192 190 192 187 185 190 194 187 176 175 163 202 211 215 215 206 208 226 241 251 232 287 341 351 345 347 350 95
285 237 262 262 253 285 325 299 288 250 266 238 236 225 226 220 217 203 197 195 199 197 188 189 186 185 187 186 196 201 208 208 211 215 216 213 197 207 228 246 241 235 259 296 315 326 329 284 24
295 351 98 78 209 280 122 264 268 257 264 247 241 238 232 222 213 209 201 197 195 191 189 185 187 186 185 186 198 195 197 220 209 212 212 224 198 208 227 238 235 230 244 249 273 289 307 263 305
139 126 79 96 276 251 79 265 277 256 247 293 276 234 229 218 209 213 207 189 187 184 188 182 182 190 187 191 196 199 203 202 214 217 214 214 211 196 215 241 233 220 239 250 258 263 257 223 201
171 73 308 280 264 281 178 246 261 278 266 277 282 261 234 208 206 202 195 193 193 187 185 184 185 187 190 193 199 208 211 212 209 210 210 202 209 214 224 229 211 216 232 237 234 243 221 188 186
166 201 232 292 282 324 164 249 263 244 288 247 279 271 234 210 208 205 201 198 192 189 186 184 186 186 187 193 199 208 216 213 213 211 209 218 217 218 212 226 215 213 218 212 213 238 243 165 143
143 213 7 271 197 275 268 270 277 284 283 273 250 239 223 205 206 206 202 200 194 195 193 188 184 187 187 194 193 203 211 214 215 214 206 213 225 218 223 225 214 206 205 208 196 220 186 186 143
234 134 173 182 252 253 251 275 256 307 322 318 252 228 224 216 205 201 202 201 200 201 195 193 189 190 187 190 193 197 204 207 209 211 211 212 212 213 217 221 201 191 201 189 172 162 164 157 149
159 202 180 238 255 278 306 282 215 265 289 295 281 251 218 212 205 205 201 203 198 194 189 192 189 191 185 189 192 195 198 203 206 209 207 209 210 209 220 187 179 182 176 158 146 151 155 155 139
225 227 207 233 201 274 313 275 259 272 291 292 283 259 232 215 208 204 196 192 194 194 188 190 190 190 186 184 189 191 193 201 203 209 214 209 216 213 210 183 181 182 173 149 153 155 151 170 144